Weather History for Meknes, Morocco

Change the Weather History Date:

Saturday, July 27, 2013

  Actual Average Record
Temperature  
Mean Temperature 72 °F -  
Max Temperature 85 °F - - ()
Min Temperature 59 °F - - ()
Cooling Degree Days 7    
Growing Degree Days 22 (Base 50)    
Moisture  
Dew Point 57 °F    
Average Humidity 65    
Maximum Humidity 94    
Minimum Humidity 30    
Precipitation  
Precipitation 0.00 in - - ()
Sea Level Pressure  
Sea Level Pressure 29.98 in    
Wind  
Wind Speed 4 mph ()    
Max Wind Speed 12 mph    
Max Gust Speed -    
Visibility 4.4 miles    
Events      
T = Trace of Precipitation, MM = Missing Value Source: Averaged Metar Reports

Daily Weather History Graph

Daily Weather History Graph

Search for Another Location

Airport:

Trip Planner

Search our weather history database for the weather conditions in past years. The results will help you decide how hot, cold, wet, or windy it might be!

Date:

Astronomy

Jul. 27, 2013 Rise Set
Actual Time 5:30 AM WET 7:26 PM WET
Civil Twilight 5:02 AM WET 7:54 PM WET
Nautical Twilight 4:28 AM WET 8:27 PM WET
Astronomical Twilight 3:53 AM WET 9:03 PM WET
Moon 10:25 PM WET (7/27) 10:37 AM WET (7/27)
Length of Visible Light 14h 51m
Length of Day
13h 56m
Waning Gibbous, 72% of the Moon is Illuminated
Jul 27
Waning Gibbous
Jul 29
Last Quarter
Aug 6
New
Aug 14
First Quarter
Aug 21
Full

Hourly Weather History & Observations

Time (WET) Temp. Heat Index Dew Point Humidity Pressure Visibility Wind Dir Wind Speed Gust Speed Precip Events Conditions
12:00 AM 64 °F - 59 °F 77% 29.95 in 6 mi WNW 3.5 mph - -  
12:00 AM 64.4 °F - 59.0 °F 83% 30.01 in - WNW 3.5 mph - N/A   Clear
1:00 AM 62.6 °F - 59.0 °F 88% 29.98 in - West 2.3 mph - N/A   Clear
2:00 AM 62.6 °F - 57.2 °F 82% 29.95 in - Calm Calm - N/A   Clear
3:00 AM 61 °F - 57 °F 83% 29.91 in 6 mi East 2.3 mph - -  
3:00 AM 60.8 °F - 57.2 °F 88% 29.95 in - East 2.3 mph - N/A   Clear
4:00 AM 60.8 °F - 57.2 °F 88% 29.95 in - West 2.3 mph - N/A   Clear
5:00 AM 60.8 °F - 57.2 °F 88% 29.95 in - Calm Calm - N/A   Clear
6:00 AM 60 °F - 57 °F 87% 29.95 in 4 mi WNW 3.5 mph - -   Scattered Clouds
6:00 AM 60.8 °F - 57.2 °F 88% 29.98 in 3.7 mi WNW 3.5 mph - N/A   Partly Cloudy
6:34 AM 60.8 °F - 59.0 °F 94% 30.01 in 2.5 mi WNW 5.8 mph - N/A   Overcast
7:00 AM 62.6 °F - 59.0 °F 88% 30.01 in 2.5 mi WNW 3.5 mph - N/A   Overcast
8:00 AM 62.6 °F - 59.0 °F 88% 30.04 in 2.5 mi West 2.3 mph - N/A   Overcast
9:00 AM 65 °F - 58 °F 73% 29.98 in 2 mi SW 1.2 mph - -   Mist
9:00 AM 66.2 °F - 59.0 °F 78% 30.04 in 2.5 mi SW 1.2 mph - N/A   Overcast
10:00 AM 73.4 °F - 59.0 °F 61% 30.04 in 3.1 mi North 4.6 mph - N/A   Partly Cloudy
11:00 AM 75.2 °F - 57.2 °F 53% 30.01 in 3.7 mi WNW 5.8 mph - N/A   Partly Cloudy
12:00 PM 78 °F - 58 °F 40% 29.91 in 5 mi NNW 4.6 mph - -   Scattered Clouds
12:00 PM 78.8 °F - 59.0 °F 51% 30.01 in 5.0 mi NNW 4.6 mph - N/A   Partly Cloudy
1:00 PM 80.6 °F 80.8 °F 57.2 °F 45% 30.01 in 6.2 mi WNW 8.1 mph - N/A   Partly Cloudy
2:00 PM 84.2 °F 83.5 °F 57.2 °F 40% 29.98 in 6.2 mi NNW 9.2 mph - N/A   Partly Cloudy
3:00 PM 84 °F - 57 °F 30% 29.86 in 6 mi WNW 9.2 mph - -  
3:00 PM 84.2 °F 83.5 °F 57.2 °F 40% 29.98 in - WNW 9.2 mph - N/A   Clear
4:00 PM 84.2 °F 83.5 °F 57.2 °F 40% 29.98 in - NNW 10.4 mph - N/A   Clear
5:00 PM 82.4 °F 82.0 °F 57.2 °F 42% 29.98 in - NW 11.5 mph - N/A   Clear
6:00 PM 80 °F - 56 °F 34% 29.87 in 6 mi NW 11.5 mph - -  
6:00 PM 80.6 °F 80.8 °F 57.2 °F 45% 29.98 in - NW 11.5 mph - N/A   Clear
7:00 PM 77.0 °F - 55.4 °F 47% 29.98 in - NW 11.5 mph - N/A   Clear
8:00 PM 71.6 °F - 55.4 °F 57% 30.04 in - NW 8.1 mph - N/A   Clear
9:00 PM 69 °F - 56 °F 54% 29.97 in 6 mi West 6.9 mph - -  
9:00 PM 69.8 °F - 55.4 °F 60% 30.04 in - West 6.9 mph - N/A   Clear
10:00 PM 68.0 °F - 55.4 °F 64% 30.06 in - WNW 5.8 mph - N/A   Clear
11:00 PM 66.2 °F - 55.4 °F 68% 30.06 in - West 3.5 mph - N/A   Clear